DELTA 1 DEB

Satellite information

Favourite Embed

Satellite Type and Status

DEBRISIN ORBIT

Key statistics

Satellite DELTA 1 DEB at a glance.

Uptime

18934

Days in orbit

Revolutions

≈ 12.3

Per day

Orbit

SSO

Sun Synchronous Orbit

Inclination

102.0

Latest

Satellite identification and parameters

Extended collection of information and parameters for DELTA 1 DEB.

Object identification

Identified? True

Debris? True

Object name: DELTA 1 DEB

International designator: 1973-086GH

Object number (NORAD): 9978

Object ID (CCSDS): 9978

Country: UNITED STATES OF AMERICA (US)

Current information (Y/N): Y

RCS size: SMALL

Orbital parameters

Period: 116.784 minutes

Inclination: 102.0333 deg

SMA: 7914.354 km

Apoapsis: 1579.322 km

Periapsis: 1493.116 km

RAAN: 193.6588 deg

Eccentricy: 0.00544617

Argument of periapsis: 106.7582 deg

Mean anomaly: 313.9285 deg

Mean motion: 12.33046872 rev/day

Mean motion (dot): 0.00000055 rev/day2

B* drag term: 0.00080732766 1/REarth

Two-line elements (TLE)

Creation date: Sept. 7, 2025, 3:09 a.m.

Reference frame: TEME

Reference center: EARTH

Epoch: Sept. 6, 2025, 7:38 p.m. UTC

TLE line 0: 0 DELTA 1 DEB

TLE line 1: 1 09978U 73086GH 25249.81819513 .00000055 00000-0 80733-3 0 9999

TLE line 2: 2 09978 102.0333 193.6588 0054462 106.7582 313.9285 12.33046872257738

Live tracking on map

Real-time ground track for satellite DELTA 1 DEB.

In-orbit conjunctions

A list of the most updated potential collisions computed for object DELTA 1 DEB.

Target Orbit TCA Probability of collision Miss distance Type
JD 2 LEO 2024-06-13 03:57:29 0.0001410086 728.0 (m) PAYLOAD

Associated space launch

Meteorological satellite using radiometric imaging

DELTA 1 DEB was lifted into orbit during the mission ‘Delta 0300 | NOAA 3’, on board a Delta 0300 space rocket.

The launch took place on Nov. 6, 1973, 5:02 p.m. from Space Launch Complex 2W.

For more information about the launch, click the button.

Launch to space Delta 0300 | NOAA 3
Delta 0300 | NOAA 3

Agency: N/A

Status: Launch Successful

Launch date: Nov. 6, 1973, 5:02 p.m. UTC

Rocket: Delta 0300

Launch pad: Space Launch Complex 2W

Location: Vandenberg SFB, CA, USA

...

Latest news about this satellite

There are no fresh news available about this satellite. Check back as we update our databases every day.


Newsletter sign-up

Weekly statistics, charts and insights to help you stay on top of the space industry.